Regional Weather Roundup
Issued by NWS

Home | Current Version | Previous Version | Graphics & Text | Print | Product List | Glossary On
Versions: 1 2 3 4 5 6 7 8 9 10 11 12 13 14 15 16 17 18 19 20 21 22 23 24 25 26 27 28 29 30 31 32 33 34 35 36 37 38 39 40 41 42 43 44 45 46 47 48 49 50
000
ASUS45 KTFX 010719
RWRMT
MONTANA HOURLY WEATHER ROUNDUP
NATIONAL WEATHER SERVICE GREAT FALLS MT
119 AM MDT WED OCT 1 2014

NOTE: "FAIR" INDICATES FEW OR NO CLOUDS BELOW 12000 FEET WITH NO
SIGNIFICANT WEATHER AND/OR OBSTRUCTIONS TO VISIBILITY.

* THESE STATIONS ARE NOT UNDER NWS QUALITY CONTROL. THEY DO NOT
   REPORT WEATHER SUCH AS PRECIPITATION OR FOG.

MTZ001>007-043-010800-
WEST OF THE DIVIDE
CITY           SKY/WX    TMP DP  RH WIND       PRES   REMARKS
KALISPELL      LGT RAIN  46  45  96 CALM      29.95R
MISSOULA       CLOUDY    46  41  83 N3        30.00R
BUTTE          MOCLDY    37  30  76 W5        29.98S WCI  33
MULLAN PASS    FOG       34  32  92 NW5       30.00S VSB 1    WCI  29
* ESSEX        N/A       43  42  96 N/A        N/A
* LINCOLN      N/A       40  35  82 S4         N/A
* LOOKOUT PASS N/A       35  35 100 N1         N/A
* POLSON       N/A       44  39  83 SE1        N/A
* RONAN APT    MOCLDY    46  43  89 N/A        N/A
* SEELEY LAKE  N/A       38  37  96 N/A        N/A
* THOMP F APT  CLEAR     38  28  67 NW6G23     N/A   WCI  33
* YAAK HILL    N/A       40  38  93 NE1        N/A
$$

MTZ008-052>055-010800-
SOUTHWEST MONTANA
CITY           SKY/WX    TMP DP  RH WIND       PRES   REMARKS
BOZEMAN        CLOUDY    43  34  71 W8        29.95R
DILLON         PTCLDY    36  30  79 SE7       29.98R WCI  30
W YELLOWSTONE  CLOUDY    36  36 100 S6        29.95S WCI  31
* THREE FORKS  CLEAR     46  46 100 W5         N/A
* BOULDER HILL N/A       40  23  51 W3G8       N/A
* MONIDA PASS  N/A       35  28  76 NW13G19    N/A   WCI  26
* RAYNOLDS PAS N/A       36 -15  10 VRB9       N/A   WCI  29
* WHITEHALL    N/A       40  33  76 NW5        N/A   WCI  36
* WISE RIVER   N/A       39  30  70 W4         N/A
$$

MTZ009>010-012-014-046-048-049-054-010800-
EAST SLOPES AND CENTRAL MONTANA
CITY           SKY/WX    TMP DP  RH WIND       PRES   REMARKS
CUT BANK       CLOUDY    43  39  86 W13       29.88F
GREAT FALLS    CLOUDY    43  39  86 W6        29.91S
HELENA         CLOUDY    48  34  59 W8G16     29.93R
MALMSTROM AFB  CLOUDY    45  41  86 W9        29.92S
* CONRAD       MOCLDY    45  43  93 W9         N/A
* EAST GLACIER N/A       37  36  96 NW4        N/A
* MONARCH      N/A       39  36  89 W9G14      N/A   WCI  33
* PENDROY      N/A       41  40  96 NW9        N/A
* SAINT MARY   N/A       38  37  96 S4         N/A
* SWEET GRASS  N/A       42  42 100 W14G19     N/A
* WHITE SULPH  N/A       41  33  73 NW4G11     N/A
$$

MTZ011-013-016-021-035-040-045-047-050-051-010800-
NORTH CENTRAL MONTANA
CITY           SKY/WX    TMP DP  RH WIND       PRES   REMARKS
HAVRE          LGT RAIN  48  45  89 W13       29.82R
LEWISTOWN      LGT RAIN  45  43  93 NW16G23   29.87R
* CHINOOK      CLOUDY    48  46  93 W10       29.80S
* FORT BENTON  MOCLDY    46  41  83 W9        29.88S
* DENTON       N/A       46  43  89 NW16G22    N/A
* JUDITH GAP   N/A       43  40  89 NW16G22    N/A
* LOMA         N/A       48  42  80 W11G16     N/A
$$

MTZ017>020-022>027-061-062-010800-
NORTHEAST MONTANA
CITY           SKY/WX    TMP DP  RH WIND       PRES   REMARKS
GLASGOW        CLOUDY    54  48  80 NW21G30   29.63S
GLENDIVE       CLOUDY    54  50  86 NW20G28   29.61R
JORDAN         CLOUDY    52  48  86 NW18      29.70R
SIDNEY         CLOUDY    55  52  90 W18       29.55R
WOLF POINT     CLOUDY    55  50  83 W17G22    29.59R
* BEAVER HILL  N/A       52  51  96 W20G26     N/A
* CIRCLE       N/A       54  51  90 W7G12      N/A
* LINDSAY DVD  N/A       51  50  96 W20G27     N/A
* NAVAJO       N/A       51  50  96 NW20G30    N/A
$$

MTZ028>042-056>058-010800-
SOUTHCENTRAL AND SOUTHEAST MONTANA
CITY           SKY/WX    TMP DP  RH WIND       PRES   REMARKS
BAKER          MOCLDY    52  48  86 W14       29.64R
BILLINGS       CLOUDY    52  39  61 NW22G30   29.82R
LIVINGSTON     CLOUDY    45  34  65 W12G23    29.91R
MILES CITY     CLOUDY    55  48  77 W14       29.68S
* LAUREL APT   CLOUDY    52  37  57 W10        N/A
* ROUNDUP APT  MOCLDY    52  37  57 W8         N/A
* ALZADA       N/A       52  47  83 W8         N/A
* LAME DEER    N/A       48  44  86 NW12G19    N/A
* REED POINT   N/A       52  31  45 W17G22     N/A
* ROSCOE HILL  N/A       48  23  37 W5G12      N/A
$$

REGIONAL REPORTS...DAKOTAS
CITY           SKY/WX    TMP DP  RH WIND       PRES   REMARKS
WILLISTON      CLOUDY    54  52  93 SW8       29.48F
DICKINSON      CLOUDY    54  52  93 W16       29.53R
BEACH          N/A       52  52 100 W21G26    29.59R
CROSBY         N/A      N/A N/A N/A N/A        N/A
TIOGA          MOCLDY    48  48 100 W8        29.49S
WATFORD CITY   CLOUDY    54  54 100 W14G21    29.47S
BISMARCK       CLOUDY    54  52  93 SW15      29.52R
GRAND FORKS    CLOUDY    61  54  78 SE20      29.50F
FARGO          PTCLDY    63  55  75 S22G31    29.57S
BUFFALO SD     MOCLDY    52  48  86 W16       29.59R
RAPID CITY     CLOUDY    54  45  72 CALM      29.73R
$$

REGIONAL REPORTS...WYOMING/IDAHO/WASHINGTON
CITY           SKY/WX    TMP DP  RH WIND       PRES   REMARKS
GILLETTE       MOCLDY    48  45  89 W9        29.79S
SHERIDAN       CLOUDY    50  43  77 N6        29.82R
CODY           CLOUDY    43  41  93 N6        29.88S
YELLOWSTONE LA CLOUDY    34  30  85 S3        29.98R
SALMON         CLOUDY    45  37  74 CALM      30.01S
MULLAN PASS    FOG       34  32  92 NW5       30.00S VSB 1    WCI  29
SAND POINT     FOG       37  37 100 CALM      29.99R VSB 3/4
SPOKANE        CLEAR     45  34  65 SW6       30.01R
$$

REGIONAL REPORTS...ALBERTA
CITY           SKY/WX    TMP DP  RH WIND       PRES   REMARKS
CALGARY        FAIR      41  36  82 CALM      29.87S
LETHBRIDGE     CLEAR     43  39  86 W14G20    29.87S
MEDICINE HAT   MOCLDY    46  41  83 W12       29.79S
EDMONTON       FAIR      30  28  92 SW5       29.81S WCI  25
WATERTON GATE  N/A       41  37  86 S8         N/A
CARDSTON       N/A       41  37  86 SW6        N/A
$$

REGIONAL REPORTS...SASKATCHEWAN
CITY           SKY/WX    TMP DP  RH WIND       PRES   REMARKS
SWIFT CURRENT  LGT RAIN  48  46  93 NW18G24   29.62S
REGINA         LGT RAIN  50  48  93 CALM      29.49S
VAL MARIE      N/A       48  46  93 NW18G24    N/A
ASSINIBOIA     N/A       50  48  93 NW20       N/A
CORONACH       N/A       50  48  93 W22G29     N/A

$$




USA.gov is the U.S. government's official web portal to all federal, state and local government web resources and services.